[Iaude] MPEC D12: 2018 CE14 [a=1.33,e=0.38,i=3.7,H=25.7]

mpec at mpcdb1.cfa.harvard.edu mpec at mpcdb1.cfa.harvard.edu
Fri Feb 16 15:31:16 EST 2018


M.P.E.C. 2018-D12                                Issued 2018 Feb. 16, 20:27 UT
 
     The Minor Planet Electronic Circulars contain information on unusual
         minor planets and routine data on comets.  They are published
    on behalf of Division F of the International Astronomical Union by the
          Minor Planet Center, Smithsonian Astrophysical Observatory,
                          Cambridge, MA 02138, U.S.A.

             Prepared using the Tamkin Foundation Computer Network

                              MPC at CFA.HARVARD.EDU
            URL https://www.minorplanetcenter.net/    ISSN 1523-6714


                                   2018 CE14
 
Observations:
     K18C14E* C2018 02 12.34991 09 18 53.445+21 12 12.74         20.8 wUED012F51
     K18C14E  C2018 02 12.36315 09 18 50.068+21 12 03.56         21.0 wUED012F51
     K18C14E  C2018 02 12.37645 09 18 46.651+21 11 54.11         20.8 wUED012F51
     K18C14E  C2018 02 12.38997 09 18 43.143+21 11 44.15         20.9 wUED012F51
     K18C14E 1C2018 02 13.25958 09 15 26.71 +20 57 55.7                 ED012658
     K18C14E 1C2018 02 13.26108 09 15 26.32 +20 57 54.2                 ED012658
     K18C14E 1C2018 02 13.26257 09 15 25.92 +20 57 53.2                 ED012658
     K18C14E _C2018 02 13.26879109 15 28.944+20 58 33.36         20.6 GUED012568
     K18C14E _C2018 02 13.26973609 15 28.688+20 58 32.67         20.4 GUED012568
     K18C14E _C2018 02 13.27067809 15 28.427+20 58 31.97         20.6 GUED012568
     K18C14E KC2018 02 13.89497809 12 44.83 +20 46 45.1                UED012J95
     K18C14E KC2018 02 13.89799009 12 43.86 +20 46 42.9                UED012J95
     K18C14E KC2018 02 13.90135109 12 42.90 +20 46 39.4          20.3 GUED012J95
     K18C14E KC2018 02 14.31060 09 10 42.01 +20 39 06.4          20.0 RqED012H36
     K18C14E KC2018 02 14.31691 09 10 39.82 +20 38 59.7          20.1 RqED012H36
     K18C14E KC2018 02 14.32322 09 10 37.75 +20 38 52.7          19.8 RqED012H36
     K18C14E KC2018 02 14.80179 09 08 21.66 +20 28 01.1          20.5 RUED012K51
     K18C14E KC2018 02 14.80402 09 08 20.88 +20 27 58.8          20.4 RUED012K51
     K18C14E KC2018 02 14.80623 09 08 20.08 +20 27 56.1          20.6 RUED012K51
     K18C14E KC2018 02 14.84841 09 08 07.41 +20 27 17.1          20.2 RUED012Z84
     K18C14E KC2018 02 14.85793 09 08 04.02 +20 27 05.7          20.0 RUED012Z84
     K18C14E KC2018 02 14.87037 09 07 57.71 +20 26 35.2                UED012204
     K18C14E KC2018 02 14.88093 09 07 53.89 +20 26 21.2                UED012204
     K18C14E KC2018 02 14.89130 09 07 49.33 +20 26 00.8          18.9 RqED012K61
     K18C14E KC2018 02 14.89150 09 07 50.01 +20 26 07.3          20.1 GUED012204
     K18C14E KC2018 02 14.89274 09 07 48.78 +20 25 58.7          18.9 RqED012K61
     K18C14E KC2018 02 14.89386 09 07 48.39 +20 25 57.1          19.0 RqED012K61
     K18C14E KC2018 02 14.90591 09 07 44.40 +20 25 40.3          19.7 RUED012K87
     K18C14E KC2018 02 14.90970 09 07 43.02 +20 25 34.7          20.1 RUED012K87
     K18C14E KC2018 02 14.92486 09 07 37.51 +20 25 13.4          20.0 RUED012K87
     K18C14E KC2018 02 14.94381 09 07 30.48 +20 24 46.8          19.7 RUED012K87
     K18C14E KC2018 02 14.95234 09 07 26.92 +20 24 43.7          20.5 VqED012595
     K18C14E KC2018 02 14.96355 09 07 22.77 +20 24 27.4          20.2 VqED012595
     K18C14E KC2018 02 15.82509 09 02 23.17 +20 01 04.7                UED012J95
     K18C14E KC2018 02 15.83004 09 02 21.14 +20 00 57.0                UED012J95
     K18C14E KC2018 02 15.83624 09 02 18.51 +20 00 46.7          20.3 GUED012J95
     K18C14E KC2018 02 15.89437 09 01 52.27 +19 59 28.4          19.8 VSED012L01
     K18C14E KC2018 02 15.89649 09 01 51.37 +19 59 26.0          20.1 VSED012L01
     K18C14E KC2018 02 15.89862 09 01 50.41 +19 59 22.0          20.3 VSED012L01
     K18C14E KC2018 02 15.90077 09 01 49.44 +19 59 18.0          20.2 VSED012L01
 
Observer details:
204 Schiaparelli Observatory.  Observer L. Buzzi.  0.60-m f/4.64 reflector
    + CCD, 0.84-m f/3.5 reflector + CCD.
568 Mauna Kea.  Observers R. J. Wainscoat, L. Wells.  Measurers M. Micheli,
    R. Weryk.  3.6-m Canada-France-Hawaii Telescope + CCD.
595 Farra d'Isonzo.  Observers E. Pettarin, F. Piani.  Measurer E. Pettarin.
    0.61-m f/4.0 reflector + CCD.
658 National Research Council of Canada.  Observer D. D. Balam.  1.82-m
    Plaskett telescope + CCD.
F51 Pan-STARRS 1, Haleakala.  Observers J. Bulger, T. Lowe, A. Schultz,
    M. Willman.  Measurers K. Chambers, S. Chastel, L. Denneau, H. Flewelling,
    M. Huber, E. Lilly, E. Magnier, R. Wainscoat, C. Waters, R. Weryk.  1.8-m
    Ritchey-Chretien + CCD.
H36 Sandlot Observatory, Scranton.  Observer G. Hug.  0.56-m reflector + CCD.
J95 Great Shefford.  Observer P. Birtwhistle.  0.40-m f/6.0 Schmidt-Cassegrain
    + CCD.
K51 Osservatorio del Celado, Castello Tesino.  Observers G. Favero, R. Furgoni.
    Measurer R. Furgoni.  0.80-m f/4 reflector + CCD.
K61 Rokycany Observatory.  Observer M. Adamovsky.  0.51-m f/6.8 reflector
    + CCD.
K87 Dettelbach Vineyard Observatory.  Observer B. Haeusler.  0.30-m
    Schmidt-Cassegrain + CCD.
L01 Visnjan Observatory, Tican.  Observer K. Korlevic.  1.0-m f/2.9 reflector
    + CCD.
Z84 Calar Alto-Schmidt.  Observer E. Schwab.  Measurers E. Schwab, D. Koschny,
    M. Micheli.  0.8-m f/3 Schmidt + CCD.
 
Orbital elements:
2018 CE14                                                Earth MOID = 0.0071 AU
Epoch 2018 Mar. 23.0 TT = JDT 2458200.5                 MPC
M 345.58463              (2000.0)            P               Q
n   0.64046945     Peri.  253.10102     -0.74787572     +0.66299372
a   1.3329190      Node   328.40375     -0.58214596     -0.67924855
e   0.3807665      Incl.    3.66433     -0.31904229     -0.31473916
P   1.54           H   25.7           G   0.15           U   7
Residuals in seconds of arc
180212 F51  0.0   0.1-    180214 H36 (2.0-  0.3+)   180214 K87  0.1-  0.0
180212 F51  0.0   0.1-    180214 H36 (1.3-  1.7+)   180214 K87  0.5+  0.4-
180212 F51  0.1+  0.1-    180214 K51  0.3+  0.3-    180214 K87  0.3-  0.4-
180212 F51  0.0   0.1-    180214 K51  0.1+  0.1+    180214 595  0.2+  0.2-
180213 658 (1.8-  0.4-)   180214 K51  0.4-  0.1+    180214 595  0.7+  0.2-
180213 658  1.4-  0.5-    180214 Z84  0.1+  0.1-    180215 J95  0.2+  0.0
180213 658  1.2-  0.2-    180214 Z84  0.0   0.0     180215 J95  0.4+  0.2+
180213 568  0.1+  0.0     180214 204  0.3+  0.1-    180215 J95  0.4-  0.1-
180213 568  0.1+  0.0     180214 204  0.3+  0.4-    180215 L01  0.5-  1.0-
180213 568  0.1+  0.0     180214 K61  0.2-  0.5+    180215 L01  0.1+  0.3+
180213 J95  0.4+  0.2-    180214 204  0.1-  0.4-    180215 L01  0.2-  0.1+
180213 J95  0.4-  0.6+    180214 K61  0.6-  0.4+    180215 L01  0.4-  0.1-
180213 J95  0.4+  0.6+    180214 K61  0.4-  0.3+
180214 H36  1.0-  1.4-    180214 K87  0.2-  0.5+

Ephemeris:
2018 CE14                a,e,i = 1.33, 0.38, 4                   q = 0.8254
Date    TT    R. A. (2000) Decl.     Delta      r     Elong.  Phase     V
2018 01 17    09 42 54.1 +22 14 46   0.2572  1.2214   154.8    20.1    24.2
...
2018 02 01    09 39 11.6 +22 12 21   0.1471  1.1300   168.9     9.6    22.4
...
2018 02 09    09 28 07.5 +21 44 38   0.09524 1.0812   173.1     6.3    21.2
...
2018 02 15    09 07 12.1 +20 24 41   0.05886 1.0451   166.7    12.6    20.4
2018 02 16    09 01 08.7 +19 57 29   0.05301 1.0391   164.7    14.5    20.2
2018 02 17    08 53 42.1 +19 22 09   0.04723 1.0332   162.3    16.9    20.0
...
2018 02 23    06 33 21.9 +03 58 32   0.01653 0.9984   122.6    56.6    18.8
...
2018 03 03    23 25 03.3 -27 08 33   0.03977 0.9543    21.4   157.7    28.8
...
2018 03 18    22 27 53.7 -23 59 56   0.1316  0.8839    30.2   145.5    28.7

A. U. Tomatic                (C) Copyright 2018 MPC           M.P.E.C. 2018-D12



More information about the Iaude mailing list